KONT

Ontario International Airport

Airport
ICAO code
KONT
IATA Code
ONT
Summary
ICAO Region
NAM
ICAO Territory
Location

Ontario, California

Serving
Ontario
Elevation
944 ft
Coordinates
34° 3' 39" N , 117° 35' 54" W
KCC
Airport BS
Bird Strike
Airport WX
Fog
Metar
KONT 181653Z VRB03KT 8SM BKN210 OVC240 16/09 A3000 RMK AO2 SLP153 T01560094

International airport 2 nm east of the city of Ontario, California, USA.

Runways

Designator Length Width Surface Rops
08R/26L 3109 46 CON Yes/Yes
08L/26R 3718 46 PEM Yes/Yes

Airport map

Aerial View

SKYbrary Partners:

Safety knowledge contributed by: